Time,TemperatureF,DewpointF,PressureIn,WindDirection,WindDirectionDegrees,WindSpeedMPH,WindSpeedGustMPH,Humidity,HourlyPrecipIn,Conditions,Clouds,dailyrainin,SoftwareType,DateUTC
2013-03-29 00:03:00,38.0,29.0,30.26,West,265,1.0,3.0,69,0.00,,,0.00,,2013-03-29 04:03:00,
2013-03-29 00:13:00,38.0,29.0,30.26,West,265,1.0,3.0,69,0.00,,,0.00,,2013-03-29 04:13:00,
2013-03-29 00:22:00,37.0,27.0,30.27,West,281,2.0,3.0,68,0.00,,,0.00,,2013-03-29 04:22:00,
2013-03-29 00:33:00,37.0,27.0,30.26,West,266,2.0,3.0,68,0.00,,,0.00,,2013-03-29 04:33:00,
2013-03-29 00:43:00,37.0,27.0,30.26,West,266,2.0,3.0,68,0.00,,,0.00,,2013-03-29 04:43:00,
2013-03-29 00:53:00,36.0,26.0,30.27,West,281,1.0,3.0,68,0.00,,,0.00,,2013-03-29 04:53:00,
2013-03-29 01:03:00,36.0,26.0,30.27,WNW,284,0.0,2.0,68,0.00,,,0.00,,2013-03-29 05:03:00,
2013-03-29 01:13:00,36.0,26.0,30.27,WNW,284,0.0,2.0,68,0.00,,,0.00,,2013-03-29 05:13:00,
2013-03-29 01:23:00,35.0,26.0,30.27,West,274,1.0,3.0,70,0.00,,,0.00,,2013-03-29 05:23:00,
2013-03-29 01:33:00,35.0,27.0,30.27,West,273,0.0,1.0,71,0.00,,,0.00,,2013-03-29 05:33:00,
2013-03-29 01:43:00,35.0,27.0,30.27,West,273,0.0,1.0,71,0.00,,,0.00,,2013-03-29 05:43:00,
2013-03-29 01:52:00,34.0,26.0,30.27,West,278,0.0,1.0,72,0.00,,,0.00,,2013-03-29 05:52:00,
2013-03-29 02:02:00,33.0,27.0,30.27,West,278,1.0,1.0,78,0.00,,,0.00,,2013-03-29 06:02:00,
2013-03-29 02:12:00,33.0,27.0,30.27,West,278,1.0,1.0,78,0.00,,,0.00,,2013-03-29 06:12:00,
2013-03-29 02:23:00,33.0,27.0,30.27,West,269,0.0,1.0,78,0.00,,,0.00,,2013-03-29 06:23:00,
2013-03-29 02:32:00,32.0,26.0,30.27,West,259,0.0,1.0,79,0.00,,,0.00,,2013-03-29 06:32:00,
2013-03-29 02:42:00,32.0,26.0,30.27,West,259,0.0,1.0,79,0.00,,,0.00,,2013-03-29 06:42:00,
2013-03-29 02:52:00,30.0,24.0,30.27,West,259,0.0,0.0,79,0.00,,,0.00,,2013-03-29 06:52:00,
2013-03-29 03:03:00,30.0,24.0,30.27,West,259,0.0,0.0,79,0.00,,,0.00,,2013-03-29 07:03:00,
2013-03-29 03:12:00,30.0,24.0,30.27,West,259,0.0,0.0,79,0.00,,,0.00,,2013-03-29 07:12:00,
2013-03-29 03:22:00,29.0,25.0,30.27,West,259,0.0,0.0,84,0.00,,,0.00,,2013-03-29 07:22:00,
2013-03-29 03:32:00,28.0,25.0,30.27,West,259,0.0,0.0,87,0.00,,,0.00,,2013-03-29 07:32:00,
2013-03-29 03:42:00,28.0,25.0,30.27,West,259,0.0,0.0,87,0.00,,,0.00,,2013-03-29 07:42:00,
2013-03-29 03:52:00,28.0,25.0,30.26,West,259,0.0,0.0,87,0.00,,,0.00,,2013-03-29 07:52:00,
2013-03-29 04:02:00,28.0,25.0,30.26,WSW,257,0.0,1.0,89,0.00,,,0.00,,2013-03-29 08:02:00,
2013-03-29 04:12:00,28.0,25.0,30.26,WSW,257,0.0,1.0,89,0.00,,,0.00,,2013-03-29 08:12:00,
2013-03-29 04:22:00,28.0,25.0,30.26,WSW,257,0.0,0.0,87,0.00,,,0.00,,2013-03-29 08:22:00,
2013-03-29 04:32:00,28.0,25.0,30.26,WSW,257,0.0,1.0,88,0.00,,,0.00,,2013-03-29 08:32:00,
2013-03-29 04:42:00,28.0,25.0,30.26,WSW,257,0.0,1.0,88,0.00,,,0.00,,2013-03-29 08:42:00,
2013-03-29 04:53:00,29.0,24.0,30.26,West,274,0.0,1.0,80,0.00,,,0.00,,2013-03-29 08:53:00,
2013-03-29 05:02:00,29.0,25.0,30.27,West,274,0.0,1.0,83,0.00,,,0.00,,2013-03-29 09:02:00,
2013-03-29 05:13:00,29.0,25.0,30.27,West,274,0.0,1.0,83,0.00,,,0.00,,2013-03-29 09:13:00,
2013-03-29 05:22:00,29.0,24.0,30.27,WNW,284,0.0,1.0,80,0.00,,,0.00,,2013-03-29 09:22:00,
2013-03-29 05:33:00,29.0,24.0,30.27,WNW,284,0.0,1.0,82,0.00,,,0.00,,2013-03-29 09:33:00,
2013-03-29 05:43:00,29.0,24.0,30.27,WNW,284,0.0,1.0,82,0.00,,,0.00,,2013-03-29 09:43:00,
2013-03-29 05:52:00,27.0,23.0,30.26,WNW,284,0.0,0.0,84,0.00,,,0.00,,2013-03-29 09:52:00,
2013-03-29 06:03:00,26.0,23.0,30.27,WNW,284,0.0,0.0,87,0.00,,,0.00,,2013-03-29 10:03:00,
2013-03-29 06:12:00,26.0,23.0,30.27,WNW,284,0.0,0.0,87,0.00,,,0.00,,2013-03-29 10:12:00,
2013-03-29 06:23:00,26.0,23.0,30.26,WNW,284,0.0,0.0,88,0.00,,,0.00,,2013-03-29 10:23:00,
2013-03-29 06:33:00,25.0,22.0,30.27,WNW,284,0.0,0.0,89,0.00,,,0.00,,2013-03-29 10:33:00,
2013-03-29 06:42:00,25.0,22.0,30.27,WNW,284,0.0,0.0,89,0.00,,,0.00,,2013-03-29 10:42:00,
2013-03-29 06:53:00,25.0,22.0,30.27,WNW,283,0.0,0.0,88,0.00,,,0.00,,2013-03-29 10:53:00,
2013-03-29 08:32:00,25.0,23.0,30.27,West,277,0.0,0.0,93,0.00,,,0.00,,2013-03-29 12:32:00,
2013-03-29 08:42:00,25.0,23.0,30.27,West,277,0.0,0.0,93,0.00,,,0.00,,2013-03-29 12:42:00,
2013-03-29 08:53:00,27.0,25.0,30.27,West,277,0.0,0.0,92,0.00,,,0.00,,2013-03-29 12:53:00,
2013-03-29 09:03:00,29.0,26.0,30.27,West,276,0.0,0.0,87,0.00,,,0.00,,2013-03-29 13:03:00,
2013-03-29 09:13:00,29.0,26.0,30.27,West,276,0.0,0.0,87,0.00,,,0.00,,2013-03-29 13:13:00,
2013-03-29 09:23:00,31.0,25.0,30.27,WSW,250,2.0,4.0,79,0.00,,,0.00,,2013-03-29 13:23:00,
2013-03-29 09:33:00,32.0,25.0,30.28,WNW,291,1.0,3.0,75,0.00,,,0.00,,2013-03-29 13:33:00,
2013-03-29 09:43:00,32.0,25.0,30.28,WNW,291,1.0,3.0,75,0.00,,,0.00,,2013-03-29 13:43:00,
2013-03-29 09:53:00,33.0,24.0,30.28,West,281,2.0,4.0,70,0.00,,,0.00,,2013-03-29 13:53:00,
2013-03-29 10:03:00,35.0,26.0,30.28,WNW,284,1.0,4.0,68,0.00,,,0.00,,2013-03-29 14:03:00,
2013-03-29 10:12:00,35.0,26.0,30.28,WNW,284,1.0,4.0,68,0.00,,,0.00,,2013-03-29 14:12:00,
2013-03-29 10:22:00,36.0,25.0,30.28,WNW,290,3.0,5.0,63,0.00,,,0.00,,2013-03-29 14:22:00,
2013-03-29 10:33:00,36.0,25.0,30.28,WNW,290,3.0,5.0,63,0.00,,,0.00,,2013-03-29 14:33:00,
2013-03-29 10:42:00,36.0,25.0,30.28,WNW,290,3.0,5.0,63,0.00,,,0.00,,2013-03-29 14:42:00,
2013-03-29 10:53:00,38.0,25.0,30.27,West,277,1.0,4.0,58,0.00,,,0.00,,2013-03-29 14:53:00,
2013-03-29 11:02:00,39.0,25.0,30.28,WNW,298,1.0,5.0,56,0.00,,,0.00,,2013-03-29 15:02:00,
2013-03-29 11:12:00,39.0,25.0,30.28,WNW,298,1.0,5.0,56,0.00,,,0.00,,2013-03-29 15:12:00,
2013-03-29 11:22:00,40.0,25.0,30.27,WNW,284,1.0,5.0,55,0.00,,,0.00,,2013-03-29 15:22:00,
2013-03-29 11:33:00,41.0,25.0,30.28,WNW,285,1.0,4.0,52,0.00,,,0.00,,2013-03-29 15:33:00,
2013-03-29 11:43:00,41.0,25.0,30.28,WNW,285,1.0,4.0,52,0.00,,,0.00,,2013-03-29 15:43:00,
2013-03-29 11:53:00,41.0,25.0,30.28,WNW,285,1.0,4.0,52,0.00,,,0.00,,2013-03-29 15:53:00,
2013-03-29 12:03:00,41.0,25.0,30.28,WNW,285,1.0,4.0,52,0.00,,,0.00,,2013-03-29 16:03:00,
2013-03-29 12:13:00,41.0,25.0,30.28,WNW,285,1.0,4.0,52,0.00,,,0.00,,2013-03-29 16:13:00,
2013-03-29 12:23:00,43.0,24.0,30.27,West,269,1.0,5.0,47,0.00,,,0.00,,2013-03-29 16:23:00,
2013-03-29 12:33:00,43.0,23.0,30.27,West,281,0.0,3.0,45,0.00,,,0.00,,2013-03-29 16:33:00,
2013-03-29 12:43:00,43.0,23.0,30.27,West,281,0.0,3.0,45,0.00,,,0.00,,2013-03-29 16:43:00,
2013-03-29 12:53:00,44.0,21.0,30.27,West,276,1.0,5.0,40,0.00,,,0.00,,2013-03-29 16:53:00,
2013-03-29 13:03:00,45.0,23.0,30.26,WSW,256,0.0,4.0,42,0.00,,,0.00,,2013-03-29 17:03:00,
2013-03-29 13:12:00,45.0,23.0,30.26,WSW,256,0.0,4.0,42,0.00,,,0.00,,2013-03-29 17:12:00,
2013-03-29 13:23:00,45.0,21.0,30.26,WSW,252,2.0,5.0,38,0.00,,,0.00,,2013-03-29 17:23:00,
2013-03-29 13:33:00,45.0,21.0,30.26,WSW,252,2.0,5.0,38,0.00,,,0.00,,2013-03-29 17:33:00,
2013-03-29 13:43:00,45.0,21.0,30.26,WSW,252,2.0,5.0,38,0.00,,,0.00,,2013-03-29 17:43:00,
2013-03-29 13:53:00,47.0,24.0,30.25,ESE,110,0.0,2.0,40,0.00,,,0.00,,2013-03-29 17:53:00,
2013-03-29 14:02:00,47.0,23.0,30.24,NNW,332,1.0,5.0,39,0.00,,,0.00,,2013-03-29 18:02:00,
2013-03-29 14:13:00,47.0,23.0,30.24,NNW,332,1.0,5.0,39,0.00,,,0.00,,2013-03-29 18:13:00,
2013-03-29 14:23:00,47.0,22.0,30.24,WNW,284,0.0,5.0,37,0.00,,,0.00,,2013-03-29 18:23:00,
2013-03-29 14:32:00,48.0,24.0,30.24,WSW,240,1.0,4.0,39,0.00,,,0.00,,2013-03-29 18:32:00,
2013-03-29 14:42:00,48.0,24.0,30.24,WSW,240,1.0,4.0,39,0.00,,,0.00,,2013-03-29 18:42:00,
2013-03-29 14:53:00,49.0,23.0,30.23,WNW,298,4.0,8.0,36,0.00,,,0.00,,2013-03-29 18:53:00,
2013-03-29 15:03:00,49.0,25.0,30.23,NW,315,2.0,5.0,38,0.00,,,0.00,,2013-03-29 19:03:00,
2013-03-29 15:12:00,49.0,26.0,30.22,WNW,290,2.0,4.0,40,0.00,,,0.00,,2013-03-29 19:12:00,
2013-03-29 15:23:00,49.0,26.0,30.22,WNW,290,2.0,4.0,40,0.00,,,0.00,,2013-03-29 19:23:00,
2013-03-29 15:33:00,49.0,22.0,30.21,WNW,302,2.0,6.0,34,0.00,,,0.00,,2013-03-29 19:33:00,
2013-03-29 15:43:00,49.0,22.0,30.21,WNW,302,2.0,6.0,34,0.00,,,0.00,,2013-03-29 19:43:00,
2013-03-29 15:53:00,50.0,23.0,30.21,NNW,331,2.0,5.0,35,0.00,,,0.00,,2013-03-29 19:53:00,
2013-03-29 16:02:00,50.0,23.0,30.21,NNE,29,2.0,5.0,35,0.00,,,0.00,,2013-03-29 20:02:00,
2013-03-29 16:12:00,50.0,23.0,30.21,NNE,29,2.0,5.0,35,0.00,,,0.00,,2013-03-29 20:12:00,
2013-03-29 16:23:00,50.0,23.0,30.21,NNE,29,2.0,5.0,35,0.00,,,0.00,,2013-03-29 20:23:00,
2013-03-29 16:33:00,50.0,23.0,30.20,WNW,292,3.0,8.0,35,0.00,,,0.00,,2013-03-29 20:33:00,
2013-03-29 16:42:00,50.0,23.0,30.20,WNW,292,3.0,8.0,35,0.00,,,0.00,,2013-03-29 20:42:00,
2013-03-29 16:52:00,50.0,23.0,30.20,WNW,292,3.0,8.0,35,0.00,,,0.00,,2013-03-29 20:52:00,
2013-03-29 17:02:00,49.0,23.0,30.20,WNW,288,1.0,7.0,35,0.00,,,0.00,,2013-03-29 21:02:00,
2013-03-29 17:12:00,49.0,23.0,30.20,WNW,288,1.0,7.0,35,0.00,,,0.00,,2013-03-29 21:12:00,
2013-03-29 17:22:00,51.0,21.0,30.19,WSW,252,1.0,3.0,31,0.00,,,0.00,,2013-03-29 21:22:00,
2013-03-29 17:33:00,50.0,23.0,30.19,SSW,197,2.0,7.0,34,0.00,,,0.00,,2013-03-29 21:33:00,
2013-03-29 17:43:00,50.0,23.0,30.19,SSW,197,2.0,7.0,34,0.00,,,0.00,,2013-03-29 21:43:00,
2013-03-29 17:53:00,50.0,24.0,30.19,West,281,2.0,5.0,36,0.00,,,0.00,,2013-03-29 21:53:00,
2013-03-29 18:03:00,50.0,23.0,30.19,WNW,288,1.0,6.0,35,0.00,,,0.00,,2013-03-29 22:03:00,
2013-03-29 18:13:00,50.0,23.0,30.19,WNW,288,1.0,6.0,35,0.00,,,0.00,,2013-03-29 22:13:00,
2013-03-29 18:23:00,49.0,24.0,30.19,WNW,285,2.0,7.0,37,0.00,,,0.00,,2013-03-29 22:23:00,
2013-03-29 18:33:00,48.0,24.0,30.19,NW,312,0.0,2.0,38,0.00,,,0.00,,2013-03-29 22:33:00,
2013-03-29 18:42:00,48.0,24.0,30.19,NW,312,0.0,2.0,38,0.00,,,0.00,,2013-03-29 22:42:00,
2013-03-29 18:54:00,48.0,23.0,30.19,NW,324,0.0,1.0,37,0.00,,,0.00,,2013-03-29 22:54:00,
2013-03-29 19:03:00,47.0,25.0,30.19,WNW,294,0.0,1.0,41,0.00,,,0.00,,2013-03-29 23:03:00,
2013-03-29 19:12:00,47.0,25.0,30.19,WNW,294,0.0,1.0,41,0.00,,,0.00,,2013-03-29 23:12:00,
2013-03-29 19:22:00,47.0,24.0,30.19,WNW,285,0.0,2.0,40,0.00,,,0.00,,2013-03-29 23:22:00,
2013-03-29 19:32:00,47.0,25.0,30.19,WNW,286,0.0,1.0,42,0.00,,,0.00,,2013-03-29 23:32:00,
2013-03-29 19:42:00,47.0,25.0,30.19,WNW,286,0.0,1.0,42,0.00,,,0.00,,2013-03-29 23:42:00,
2013-03-29 19:53:00,47.0,25.0,30.19,WNW,286,0.0,1.0,41,0.00,,,0.00,,2013-03-29 23:53:00,
2013-03-29 20:03:00,46.0,24.0,30.20,WNW,287,0.0,1.0,41,0.00,,,0.00,,2013-03-30 00:03:00,
2013-03-29 20:12:00,46.0,24.0,30.20,WNW,287,0.0,1.0,41,0.00,,,0.00,,2013-03-30 00:12:00,
2013-03-29 20:22:00,45.0,23.0,30.20,WNW,287,0.0,0.0,42,0.00,,,0.00,,2013-03-30 00:22:00,
2013-03-29 20:32:00,43.0,27.0,30.20,WNW,286,0.0,0.0,53,0.00,,,0.00,,2013-03-30 00:32:00,
2013-03-29 20:43:00,43.0,27.0,30.20,WNW,286,0.0,0.0,53,0.00,,,0.00,,2013-03-30 00:43:00,
2013-03-29 20:53:00,41.0,24.0,30.20,WNW,287,0.0,0.0,50,0.00,,,0.00,,2013-03-30 00:53:00,
2013-03-29 21:03:00,39.0,24.0,30.20,WNW,286,0.0,0.0,54,0.00,,,0.00,,2013-03-30 01:03:00,
2013-03-29 21:13:00,39.0,24.0,30.20,WNW,286,0.0,0.0,54,0.00,,,0.00,,2013-03-30 01:13:00,
2013-03-29 21:22:00,38.0,24.0,30.20,WNW,287,0.0,0.0,57,0.00,,,0.00,,2013-03-30 01:22:00,
2013-03-29 21:33:00,37.0,25.0,30.21,WNW,287,0.0,0.0,61,0.00,,,0.00,,2013-03-30 01:33:00,
2013-03-29 21:43:00,37.0,25.0,30.21,WNW,287,0.0,0.0,61,0.00,,,0.00,,2013-03-30 01:43:00,
2013-03-29 21:53:00,37.0,25.0,30.21,WNW,287,0.0,0.0,61,0.00,,,0.00,,2013-03-30 01:53:00,
2013-03-29 22:03:00,35.0,29.0,30.21,WNW,286,0.0,0.0,77,0.00,,,0.00,,2013-03-30 02:03:00,
2013-03-29 22:12:00,35.0,29.0,30.21,WNW,286,0.0,0.0,77,0.00,,,0.00,,2013-03-30 02:12:00,
2013-03-29 22:22:00,34.0,27.0,30.21,WNW,286,0.0,0.0,74,0.00,,,0.00,,2013-03-30 02:22:00,
2013-03-29 22:33:00,33.0,26.0,30.22,WNW,287,0.0,0.0,74,0.00,,,0.00,,2013-03-30 02:33:00,
2013-03-29 22:43:00,33.0,26.0,30.22,WNW,287,0.0,0.0,74,0.00,,,0.00,,2013-03-30 02:43:00,
2013-03-29 22:53:00,32.0,25.0,30.22,WNW,286,0.0,0.0,75,0.00,,,0.00,,2013-03-30 02:53:00,
2013-03-29 23:03:00,32.0,26.0,30.21,WNW,287,0.0,0.0,77,0.00,,,0.00,,2013-03-30 03:03:00,
2013-03-29 23:12:00,32.0,26.0,30.22,WNW,283,0.0,1.0,77,0.00,,,0.00,,2013-03-30 03:12:00,
2013-03-29 23:22:00,32.0,26.0,30.22,WNW,283,0.0,1.0,77,0.00,,,0.00,,2013-03-30 03:22:00,
2013-03-29 23:33:00,32.0,26.0,30.22,WNW,283,0.0,1.0,77,0.00,,,0.00,,2013-03-30 03:33:00,
2013-03-29 23:43:00,32.0,26.0,30.22,WNW,283,0.0,1.0,77,0.00,,,0.00,,2013-03-30 03:43:00,
2013-03-29 23:53:00,32.0,27.0,30.22,WNW,283,0.0,0.0,82,0.00,,,0.00,,2013-03-30 03:53:00,